Find Starlink 30849

NORAD ID: 58245 Int'l Des: 2023-171 Owner: SPXS Country: US Constellation: starlink operational
LEOCIRCULAR

現在のビュー

3D地球を読み込み中...

About Starlink 30849

Starlink 30849 (NORAD 58245) is a starlink constellation satellite (v2 mini) launched Nov 8, 2023 by SPXS of US. It operates in LEO, CIRCULAR orbit with a mass of 730.00 kg.

Starlink 30849について

説明を読み込み中...

次回通過

Passes for default location (London). Set your location on the main map for personalized predictions.

高度履歴

Loading altitude history...

軌道要素

1 58245U 23171R 26171.14485919 -.00001590 00000-0 -48279-4 0 9997
2 58245 43.0032 66.6204 0001444 267.1323 92.9364 15.27564513145405
Epoch: Jun 20, 2026 • Age: 34 hours

現在のステータス

高度 484.0 km
速度 7.62 km/s
衛星直下点 -7.08°S, 137.61°E
打ち上げ日 Nov 8, 2023
運用期間 2.6 years
タイプ internet

技術仕様

分類 Payload
質量 730.00 kg
乾燥質量 700.00 kg
総質量 730.00 kg
長さ 0.30 m
直径 4.10 m
スパン 29.00 m
形状 Box + pan
製造者 SPXS
バスタイプ Starlink V2M
フェーズステータス In Orbit
所有者/国 SPXS/US

Most Searched